Weather observations for the past three days for
Detroit Lakes Airport-Wething Field
Imperial (Metric)
Date Time (cdt) Wind (mph) Vis. (mi.) Weather Sky Cond. Temperature (ºF) Relative Humidity Wind Chill (°F) Heat Index (°F) Pressure Precipitation (in)
Air Dwpt 6 hour altimeter (in) sea level (mb) 1 hr 3 hr 6 hr
Max. Min.
06 00:01 SE 12 10.00 Fair CLR 69.8 69.8 100% 30.02 0.0
05 23:41 SE 9 10.00 Fair CLR 69.8 69.8 100% 30.03 0.0
05 23:01 E 7 10.00 Fair CLR 69.8 69.8 100% 30.03 0.0
05 22:41 E 8 10.00 Fair CLR 71.6 69.8 94% 30.03 0.0
05 22:21 E 7 10.00 Fair CLR 71.6 69.8 94% 30.03 0.0
05 22:01 SE 9 10.00 Fair CLR 71.6 69.8 94% 30.01 0.0
05 21:41 SE 8 10.00 Fair CLR 71.6 69.8 94% 30.01 0.0
05 21:21 SE 12 10.00 Fair CLR 73.4 69.8 89% 30 0.0
05 21:01 SE 10 10.00 Fair CLR 73.4 71.6 94% 29.99 0.0
05 20:41 SE 8 10.00 Fair CLR 73.4 71.6 94% 29.99 0.0
05 20:21 SE 7 10.00 Fair CLR 73.4 71.6 94% 30 0.0
05 19:21 SE 8 10.00 Fair CLR 75.2 69.8 83% 75 0 0.0
05 19:01 SE 10 10.00 Fair CLR 77 69.8 79% 79 29.96 0.0
05 18:41 SE 10 10.00 Fair CLR 78.8 69.8 74% 81 29.95 0.0
05 18:21 SE 13 10.00 Fair CLR 78.8 69.8 74% 81 29.95 0.0
05 18:01 SE 14 10.00 Fair CLR 80.6 68 66% 83 29.94 0.0
05 17:41 SE 12 10.00 Fair CLR 80.6 68 66% 83 29.94 0.0
05 17:21 SE 14 9.00 Fair CLR 80.6 68 66% 83 29.94 0.0
05 17:01 E 12 10.00 Fair CLR 80.6 68 66% 83 29.95 0.0
05 16:44 SE 17 10.00 Fair CLR 82.4 68 62% 85 29.95 0.0
05 16:21 E 15 G 21 10.00 Fair CLR 82.4 68 62% 85 29.96 0.0
05 16:05 E 12 10.00 Fair CLR 82.4 68 62% 85 29.97 0.0
05 15:41 E 14 10.00 Fair CLR 80.6 68 66% 83 0 0.0
05 15:01 E 15 10.00 Fair CLR 80.6 68 66% 83 0 0.0
05 12:41 SE 10 10.00 Overcast OVC150 73.4 68 83% 30.03 0.0
05 12:24 SE 12 10.00 Overcast OVC150 73.4 68 83% 30.01 0.0
05 12:01 SE 14 10.00 Overcast OVC150 71.6 68 88% 30.02 0.0
05 11:41 SE 12 10.00 Mostly Cloudy BKN150 73.4 68 83% 30.02 0.0
05 11:01 SE 15 9.00 Mostly Cloudy FEW091 BKN161 69.8 66.2 88% 0 0.0
05 10:41 SE 13 10.00 A Few Clouds FEW009 69.8 66.2 88% 0 0.0
05 09:43 SE 13 10.00 Overcast BKN008 BKN140 OVC180 68 64.4 88% 30.04 0.0
05 09:01 SE 12 10.00 Overcast OVC007 64.4 64.4 100% 30.04 0.0
05 08:41 SE 9 9.00 Overcast OVC007 64.4 64.4 100% 30.03 0.0
05 08:01 E 14 10.00 Overcast OVC005 64.4 64.4 100% 30.01 0.0
05 07:44 SE 12 10.00 Overcast OVC005 62.6 62.6 100% 30 0.0
05 07:01 E 9 10.00 Overcast OVC006 62.6 62.6 100% 30.01 0.0
05 06:41 E 12 10.00 Overcast OVC006 64.4 64.4 100% 30 0.0
05 06:21 E 7 10.00 Overcast OVC005 64.4 64.4 100% 30 0.0
05 06:01 SE 10 10.00 Overcast OVC005 64.4 64.4 100% 30 0.0
05 05:41 SE 13 10.00 Overcast OVC005 64.4 64.4 100% 29.99 0.0
05 05:21 SE 13 10.00 Overcast OVC005 64.4 64.4 100% 29.98 0.0
05 05:01 SE 14 10.00 Overcast OVC005 62.6 62.6 100% 29.97 0.0
05 04:41 E 12 10.00 Overcast OVC005 64.4 64.4 100% 29.97 0.0
05 04:21 E 12 10.00 Overcast OVC005 64.4 64.4 100% 29.97 0.0
05 04:01 SE 12 10.00 Overcast OVC006 64.4 64.4 100% 29.98 0.0
05 03:41 E 13 10.00 Overcast OVC006 64.4 64.4 100% 29.98 0.0
05 03:21 SE 10 9.00 Overcast OVC006 64.4 64.4 100% 29.98 0.0
05 03:01 SE 12 10.00 Overcast OVC006 64.4 64.4 100% 29.98 0.0
05 02:41 SE 15 10.00 Overcast OVC006 64.4 64.4 100% 29.99 0.0
05 02:21 SE 14 10.00 Mostly Cloudy BKN007 64.4 64.4 100% 30 0.0
05 02:01 E 10 10.00 Mostly Cloudy BKN008 64.4 64.4 100% 29.99 0.0
05 01:41 SE 8 10.00 Overcast OVC007 64.4 64.4 100% 30 0.0
05 01:21 SE 10 10.00 Overcast OVC005 64.4 64.4 100% 30 0.0
05 01:01 SE 15 G 21 10.00 Overcast OVC004 64.4 64.4 100% 30 0.0
05 00:41 SE 17 10.00 Overcast OVC004 64.4 64.4 100% 30 0.0
05 00:21 SE 12 10.00 Overcast OVC004 64.4 64.4 100% 29.99 0.0
05 00:01 E 10 10.00 Mostly Cloudy BKN004 64.4 64.4 100% 29.99 0.0
04 23:41 E 14 10.00 Fair CLR 66.2 66.2 100% 29.99 0.0
04 23:01 E 10 10.00 Fair CLR 68 68 100% 29.99 0.0
04 22:41 E 8 10.00 Fair CLR 68 66.2 94% 29.99 0.0
04 22:21 E 7 10.00 Fair CLR 68 66.2 94% 29.99 0.0
04 22:01 E 8 10.00 Fair CLR 68 66.2 94% 29.99 0.0
04 21:44 E 8 10.00 Fair CLR 69.8 66.2 88% 29.99 0.0
04 21:21 E 8 10.00 Fair CLR 69.8 66.2 88% 29.98 0.0
04 21:01 E 9 10.00 Fair CLR 71.6 68 88% 29.98 0.0
04 20:41 E 10 10.00 Fair CLR 71.6 68 88% 29.97 0.0
04 20:21 E 7 10.00 Fair CLR 73.4 68 83% 29.96 0.0
04 19:41 E 12 9.00 A Few Clouds FEW019 75.2 68 78% 76 29.95 0.0
04 19:01 E 9 10.00 A Few Clouds FEW250 77 66.2 69% 79 29.94 0.0
04 18:41 SE 13 10.00 Mostly Cloudy BKN260 80.6 66.2 62% 83 29.95 0.0
04 18:21 E 10 9.00 Partly Cloudy SCT260 82.4 66.2 58% 85 29.95 0.0
04 18:01 E 7 10.00 A Few Clouds FEW290 82.4 66.2 58% 85 29.94 0.0
04 17:21 E 6 10.00 A Few Clouds FEW280 84.2 66.2 55% 87 29.93 0.0
04 17:01 E 8 10.00 Fair CLR 84.2 64.4 51% 86 29.93 0.0
04 16:41 NE 8 10.00 Fair CLR 84.2 62.6 48% 85 29.93 0.0
04 16:24 E 7 10.00 Fair CLR 84.2 62.6 48% 85 29.94 0.0
04 16:01 Vrbl 6 10.00 Fair CLR 84.2 62.6 48% 85 29.94 0.0
04 15:41 NE 5 10.00 Fair CLR 84.2 64.4 51% 86 29.94 0.0
04 15:21 E 10 10.00 Fair CLR 84.2 64.4 51% 86 29.94 0.0
04 15:01 NE 6 10.00 Fair CLR 84.2 64.4 51% 86 29.94 0.0
04 14:41 NE 10 10.00 Fair CLR 82.4 64.4 55% 84 29.94 0.0
04 14:21 NE 7 10.00 Fair CLR 82.4 64.4 55% 84 29.94 0.0
04 14:01 E 7 10.00 Fair CLR 82.4 66.2 58% 85 29.94 0.0
04 13:41 N 6 10.00 Fair CLR 82.4 66.2 58% 85 29.94 0.0
04 13:21 NE 8 10.00 Fair CLR 80.6 66.2 62% 83 29.94 0.0
04 13:01 E 8 10.00 Fair CLR 80.6 64.4 58% 82 29.94 0.0
04 12:04 E 8 10.00 Fair CLR 78.8 68 70% 81 29.94 0.0
04 11:41 NE 9 10.00 Fair CLR 77 68 74% 79 29.94 0.0
04 11:24 N 5 10.00 Fair CLR 77 69.8 79% 79 29.93 0.0
04 11:01 N 6 10.00 A Few Clouds FEW013 75.2 69.8 83% 75 29.94 0.0
04 10:41 N 5 10.00 A Few Clouds FEW008 73.4 69.8 89% 29.94 0.0
04 10:01 Calm 10.00 Overcast OVC006 69.8 69.8 100% 29.93 0.0
04 09:41 Calm 8.00 Overcast OVC005 68 68 100% 29.93 0.0
04 09:01 NE 5 7.00 Overcast OVC004 68 68 100% 29.91 0.0
04 08:41 NE 5 4.00 Fog/Mist OVC001 66.2 66.2 100% 29.91 0.0
04 08:21 N 3 0.75 Fog/Mist OVC001 66.2 66.2 100% 29.91 0.0
04 08:01 Calm 2.00 Fog/Mist OVC001 33.8 33.8 100% 29.91 0.0
04 07:24 Calm 7.00 Overcast OVC003 64.4 64.4 100% 29.9 0.0
04 07:04 E 5 8.00 Overcast OVC004 66.2 66.2 100% 29.89 0.0
04 06:41 E 6 9.00 Overcast OVC005 64.4 64.4 100% 29.88 0.0
04 06:21 SE 8 10.00 Overcast OVC004 64.4 64.4 100% 29.87 0.0
04 05:41 E 7 10.00 Overcast OVC007 66.2 66.2 100% 29.87 0.0
04 05:21 SE 8 10.00 Overcast OVC007 66.2 66.2 100% 29.86 0.0
04 05:01 S 5 10.00 Overcast OVC008 64.4 64.4 100% 29.87 0.0
04 04:41 E 3 10.00 Overcast OVC009 64.4 64.4 100% 29.85 0.0
04 04:21 NE 5 10.00 Overcast OVC009 64.4 64.4 100% 29.85 0.0
04 03:41 E 5 10.00 Partly Cloudy SCT009 64.4 64.4 100% 29.84 0.0
04 03:21 Calm 10.00 Fair CLR 64.4 64.4 100% 29.83 0.0
04 02:41 E 3 10.00 Fair CLR 66.2 64.4 94% 29.84 0.0
04 02:24 E 5 10.00 Fair CLR 66.2 64.4 94% 29.83 0.0
04 02:01 E 5 10.00 Fair CLR 66.2 66.2 100% 29.83 0.0
04 01:41 E 8 10.00 Fair CLR 66.2 66.2 100% 29.82 0.0
04 01:21 E 8 10.00 Fair CLR 66.2 66.2 100% 29.83 0.0
04 01:01 E 10 10.00 Fair CLR 66.2 66.2 100% 29.82 0.0
04 00:41 E 12 10.00 Fair CLR 66.2 66.2 100% 29.81 0.0
04 00:01 E 8 10.00 Fair CLR 68 66.2 94% 29.81 0.0
03 23:41 E 10 10.00 Fair CLR 68 66.2 94% 29.79 0.0
03 23:21 E 12 10.00 Fair CLR 68 66.2 94% 0 0.0
03 23:01 NE 12 10.00 Fair CLR 68 66.2 94% 29.81 0.0
03 22:04 E 9 10.00 Fair CLR 69.8 66.2 88% 29.78 0.0
03 21:41 SE 9 10.00 Fair CLR 69.8 66.2 88% 29.77 0.0
03 21:21 E 8 10.00 Fair CLR 71.6 66.2 83% 0 0.0
03 21:04 E 13 10.00 Fair CLR 71.6 68 88% 29.76 0.0
03 20:41 E 9 10.00 Fair CLR 71.6 66.2 83% 29.76 0.0
03 20:01 E 10 9.00 Partly Cloudy SCT140 71.6 66.2 83% 29.75 0.0
03 19:48 E 10 9.00 Mostly Cloudy BKN140 BKN160 71.6 66.2 83% 29.75 0.0
03 14:01 SE 14 10.00 Partly Cloudy FEW150 SCT170 82.4 71.6 70% 87 29.74 0.0
03 13:44 SE 15 10.00 Overcast BKN150 OVC180 84.2 71.6 66% 90 29.75 0.0
03 13:21 SE 17 10.00 Mostly Cloudy BKN150 82.4 69.8 66% 86 29.75 0.0
03 12:41 SE 17 10.00 Fair CLR 80.6 69.8 70% 84 29.76 0.0
03 12:24 SE 14 10.00 Partly Cloudy SCT040 80.6 71.6 74% 85 29.76 0.0
03 12:01 SE 12 10.00 Overcast FEW028 OVC037 78.8 69.8 74% 81 0 0.0
03 11:41 SE 15 9.00 Mostly Cloudy BKN034 78.8 69.8 74% 81 29.77 0.0
03 11:21 SE 12 10.00 Fair CLR 78.8 68 70% 81 29.77 0.0
03 11:01 E 16 10.00 Fair CLR 77 68 74% 79 29.77 0.0
03 10:41 E 14 G 20 10.00 Fair CLR 77 66.2 69% 79 29.78 0.0
03 10:21 E 14 10.00 Fair CLR 73.4 66.2 78% 29.78 0.0
03 09:44 E 14 10.00 Fair CLR 73.4 62.6 69% 29.79 0.0
03 09:21 E 12 10.00 A Few Clouds FEW015 71.6 62.6 73% 29.8 0.0
03 09:01 E 15 10.00 Mostly Cloudy BKN160 71.6 60.8 69% 29.81 0.0
03 08:41 E 15 10.00 Partly Cloudy SCT160 69.8 60.8 73% 29.81 0.0
03 08:21 E 12 9.00 Fair CLR 69.8 60.8 73% 29.82 0.0
03 08:01 E 10 9.00 Fair CLR 68 60.8 78% 29.82 0.0
03 07:41 E 10 9.00 Fair CLR 66.2 60.8 83% 29.82 0.0
03 07:01 E 8 9.00 Fair CLR 66.2 60.8 83% 29.83 0.0
03 06:41 E 9 9.00 A Few Clouds FEW042 66.2 59 78% 29.83 0.0
03 06:01 E 9 10.00 Overcast OVC038 68 59 73% 29.83 0.0
03 05:41 E 6 10.00 Mostly Cloudy BKN030 68 59 73% 29.83 0.0
03 05:01 E 9 10.00 Mostly Cloudy BKN037 BKN050 68 59 73% 29.83 0.0
03 04:21 E 9 10.00 Overcast SCT033 BKN040 OVC055 68 59 73% 29.84 0.0
03 04:01 E 9 10.00 Mostly Cloudy BKN038 BKN060 68 59 73% 29.84 0.0
03 03:44 E 8 10.00 Partly Cloudy FEW039 SCT055 66.2 59 78% 29.84 0.0
03 03:21 E 6 10.00 Partly Cloudy FEW039 SCT050 64.4 59 83% 29.85 0.0
03 02:24 E 5 10.00 Fair CLR 64.4 59 83% 29.86 0.0
03 02:01 NE 3 10.00 Fair CLR 64.4 59 83% 29.87 0.0
03 01:41 NE 3 10.00 Fair CLR 64.4 59 83% 29.87 0.0
03 01:21 E 5 10.00 Fair CLR 64.4 59 83% 29.87 0.0
03 01:01 E 3 10.00 Fair CLR 66.2 59 78% 29.87 0.0
03 00:41 NE 5 10.00 Fair CLR 66.2 59 78% 29.87 0.0
03 00:24 NE 3 9.00 Fair CLR 66.2 59 78% 29.88 0.0
Date Time (cdt) Wind (mph) Vis. (mi.) Weather Sky Cond. Air Dwpt Max. Min. Relative Humidity Wind Chill (°F) Heat Index (°F) altimeter (in) sea level (mb) 1 hr 3 hr 6 hr
6 hour
Temperature (ºF) Pressure Precipitation (in)